Location: Frankfurt+am+Main
(50.1100°N, 8.4815°E)
Time: 20:40:23
(UTC+01:00)

Tiangong 2 - Visible Passes

Search period start: 17 February 2018 00:00
Search period end: 27 February 2018 00:00
Orbit: 385 x 388 km, 42.8° (Epoch: 17 February)

Date Brightness Start Highest point End Pass type
(mag) Time Alt. Az. Time Alt. Az. Time Alt. Az.
17 Feb 3.0 19:33:11 10° WSW 19:35:38 20° S 19:36:10 19° S visible
18 Feb 3.1 18:34:21 10° SW 18:36:53 22° S 18:39:25 10° SE visible
18 Feb 3.8 20:11:17 10° SW 20:12:21 13° SSW 20:12:21 13° SSW visible
19 Feb 3.4 19:12:07 10° WSW 19:14:19 17° SSW 19:16:19 11° SSE visible
20 Feb 4.0 19:51:36 10° SSW 19:51:37 10° SSW 19:51:41 10° SSW visible
21 Feb 3.8 18:51:14 10° SW 18:52:57 14° SSW 18:54:40 10° SSE visible
